STARLINK-33983 (63948 NORAD) Tracking and Keplerian Element Data

This shows tracking and keplerian element data for the satellite.

Feedback or suggestion? Click here.




ElementValue
Catalog63948
NameSTARLINK-33983
Epoch Orbit3454
Epoch Day353.51430287
Epoch Year2025
RAAN116.5804
Inclination70.0028
Eccentricity0.0002529
Argument of Perigee272.2476
Mean Anonmoly87.8393
Mean Motion14.9834073
Decay Rate4.716E-05
L11 63948U 25098Y 25353.51430287 .00004716 00000+0 40266-3 0 9990
L22 63948 70.0028 116.5804 0002529 272.2476 87.8393 14.98340730 34545



Live tracking and technical data element details for STARLINK-33983 (NORAD 63948). STARLINK-33983 can be tracked NOW for your location showing map with azimuth and elevation plus other details from your city location.







IsCatalogInMostPopularTable: catalog: 63948, numindb: 3
Update: records affected: 1



GetName: 63948 STARLINK-33983

Hit Count: updated at: Sun, 08 Feb 2026 16:31:03 GMT